Location: Ferintosh
(52.7647°N, 112.9692°W)
Time: 18:21:40
(UTC+00:00)

A-11 Canister half - Pass Details

Date: 27 May 2024
Orbit: 1515 x 1685 km, 47.2° (Epoch: 12 June)

Event Time Altitude Azimuth Distance (km) Brightness Sun altitude
Rises 15:20:05 0° 285° (WNW) 4,685 11.0 33.6°
Reaches altitude 10° 15:24:03 10° 271° (W) 3,686 10.6 34.2°
Maximum altitude 15:30:24 21° 227° (SW) 2,891 10.3 35.1°
Drops below altitude 10° 15:36:44 10° 182° (S) 3,673 11.2 36.1°
Sets 15:40:42 0° 168° (SSE) 4,664 11.8 36.7°
